Startseite
Über Mich
AHP4
Galerie
Sehschlangen
Tourenbuch
Bookmarks
Elektronik
Bewertung
Geschichten
[Tagesmessung] [Jahreswerte] [Information]

Messwerte vom 04.02.2022

Die letzten Messwerte von 23:58:48 Uhr:
KategorieMesswert
Temperatur [°C]3
Luftdruck [mBar]993
Sonneneinstrahlung0
Wind [km/h]19 aus Südwest
Niederschlag [l/m²]0
rel.Luftfeucht.96.6%
CO2 [ppm]745

Diagramme
Messwerte vom 04.02.2022
Tagesaggregation
KategorieMinimumMaximumSchnittSumme
Temperatur [°C]295.7792
Luftdruck [mBar]986995991.7104
Sonneneinstrahlung23068.8958
Wind [km/h]31
rF [%]82.496.693.31
Niederschlag [l/m²]1.2875
CO2 [ppm]401759546.5
Einordnung alsKalter Tag

Messungen an benachbarten Tagen: Zur Jahresaggregation 2022
Tabelle aller Messwerte
UhrzeitTemperatur [°C]Luftdruck [mBar]SonneWind [km/h]RichtungRegen [l/m²]rF [%]CO2 [ppm]
00:01:49 5 995 0 1 SW 0 96.6 427
00:04:48 5 995 0 0 SO 0 96.6 427
00:07:45 5 995 0 3 0 96.6 439
00:10:47 5 995 0 2 S 0 96.6 442
00:13:46 5 995 0 0 S 0 96.6 451
00:16:51 5 995 0 8 S 0 96.6 451
00:19:46 5 995 0 5 SO 0 96.6 448
00:22:46 5 995 0 1 SW 0 96.6 447
00:25:47 5 995 0 5 SO 0 96.6 448
00:28:50 5 995 0 2 S 0 96.6 448
00:31:46 5 995 0 2 SO 0 96.6 454
00:34:46 5 995 0 1 S 0 96.6 451
00:37:47 5 995 0 1 SW 0 96.6 456
00:40:45 5 995 0 1 SO 0 96.6 451
00:43:46 5 995 0 3 NO 0 96.6 454
00:46:48 5 995 0 3 SO 0 96.6 454
00:49:47 5 995 0 2 SO 0 96.6 451
00:52:46 5 995 0 4 W 0 96.6 460
00:55:47 5 995 0 0 NW 0 96.6 450
00:58:49 5 995 0 1 SO 0 96.6 454
01:01:46 5 995 0 0 O 0 96.6 456
01:04:45 5 995 0 5 S 0 96.6 465
01:07:47 5 995 0 1 S 0 96.6 462
01:10:47 5 995 0 6 SO 0 96.6 466
01:13:46 5 995 0 5 NW 0 96.6 465
01:16:44 5 995 0 3 S 0 96.6 462
01:19:46 5 995 0 8 SO 0 96.6 466
01:22:45 5 995 0 6 SW 0 96.6 471
01:25:49 5 995 0 1 SO 0 96.6 472
01:28:45 5 995 0 1 W 0 96.6 468
01:31:44 5 995 0 4 W 0 96.6 468
01:34:45 5 995 0 0 S 0 96.6 468
01:37:46 5 995 0 1 O 0 96.6 474
01:40:48 5 995 0 3 S 0 96.6 483
01:43:47 5 995 0 2 SW 0 96.6 486
01:46:45 5 995 0 3 S 0 96.6 490
01:49:46 5 995 0 2 SW 0 96.6 492
01:52:47 5 995 0 5 SW 0 96.6 495
01:55:49 5 995 0 0 S 0 96.6 489
01:58:46 5 995 0 1 S 0 96.6 490
02:01:45 5 995 0 4 S 0 96.6 486
02:04:45 5 995 0 5 O 0 96.6 486
02:07:46 5 995 0 2 W 0 96.6 486
02:10:47 5 995 0 0 SW 0 96.6 492
02:13:47 5 995 0 0 NO 0 96.6 497
02:16:44 5 995 0 1 SO 0 96.6 494
02:19:47 5 995 0 4 S 0 96.6 495
02:22:46 5 995 0 1 SW 0 96.6 486
02:25:45 5 995 0 2 S 0 96.6 500
02:28:47 5 995 0 2 W 0 96.6 495
02:31:49 5 995 0 2 NW 0 96.6 495
02:34:48 5 995 0 1 SW 0 96.6 498
02:37:46 5 995 0 0 O 0 96.6 506
02:40:47 5 995 0 2 SW 0 96.6 509
02:43:45 5 995 0 3 SO 0 96.6 515
02:46:47 5 995 0 5 S 0 96.6 510
02:49:46 5 995 0 1 SO 0 96.6 494
02:52:47 5 995 0 0 S 0 96.6 489
02:55:46 5 995 0 1 SO 0 96.6 500
02:58:44 5 995 0 2 O 0 96.6 506
03:01:47 5 995 0 0 SW 0 96.6 501
03:04:47 5 995 0 3 W 0 96.6 497
03:07:44 5 995 0 1 O 0 96.6 497
03:10:49 5 995 0 0 SO 0 96.6 497
03:13:46 5 995 0 0 SO 0 96.6 494
03:16:47 5 995 0 0 SO 0 96.6 495
03:19:45 5 995 0 5 SO 0 96.6 494
03:22:45 5 994 0 7 SO 0 96.6 495
03:25:48 5 995 0 1 W 0 96.6 497
03:28:48 5 995 0 0 O 0 96.6 498
03:31:46 5 995 0 1 SW 0 96.6 506
03:34:46 5 995 0 2 S 0 96.6 507
03:37:49 5 995 0 3 SO 0 96.6 509
03:40:45 5 995 0 3 S 0 96.6 515
03:43:50 5 995 0 3 NW 0 96.6 510
03:46:46 5 995 0 7 S 0 96.6 510
03:49:45 5 995 0 3 S 0 96.6 515
03:52:48 5 995 0 2 SW 0 96.6 518
03:55:47 5 995 0 1 SW 0 96.6 510
03:58:47 5 995 0 4 SO 0 96.6 512
04:01:45 5 995 0 4 S 0 96.6 518
04:04:45 5 995 0 3 SO 0 96.6 530
04:07:46 5 995 0 1 S 0 96.6 524
04:10:46 5 995 0 2 S 0 96.6 524
04:13:46 5 995 0 2 S 0 96.6 524
04:16:49 5 995 0 7 S 0 96.6 524
04:19:47 5 995 0 2 SW 0 96.6 535
04:22:46 5 995 0 5 SO 0 96.6 536
04:25:46 5 995 0 3 S 0 96.6 533
04:28:47 5 995 0 4 O 0 96.6 535
04:31:48 5 995 0 2 O 0 96.6 528
04:34:48 5 995 0 10 SO 0 96.6 525
04:37:46 5 995 0 2 SO 0 96.6 521
04:40:48 5 994 0 2 SW 0 96.6 533
04:43:45 5 995 0 3 SO 0 96.6 541
04:46:46 5 995 0 2 SW 0 96.6 541
04:49:45 5 995 0 3 S 0 96.6 542
04:52:46 5 995 0 1 S 0 96.6 538
04:55:44 5 995 0 3 SW 0 96.6 529
04:58:44 5 995 0 2 S 0 96.6 535
05:01:45 5 995 0 3 SW 0 96.6 538
05:04:45 5 995 0 3 S 0 96.6 542
05:07:47 5 995 0 2 SO 0 96.6 538
05:10:47 5 995 0 2 S 0 96.6 536
05:13:49 5 995 0 2 SO 0 96.6 539
05:16:46 5 995 0 2 S 0 96.6 545
05:19:46 5 995 0 3 S 0 96.6 550
05:22:47 5 995 0 3 SO 0 96.6 547
05:25:47 5 995 0 2 SW 0 96.6 541
05:28:48 5 995 0 5 SW 0 96.6 544
05:31:47 5 995 0 3 S 0 96.6 550
05:34:46 5 995 0 3 S 0 96.6 553
05:37:47 5 995 0 5 SO 0 96.6 544
05:40:47 5 995 0 3 NO 0 96.6 541
05:43:46 5 995 0 3 S 0 96.6 547
05:46:48 5 995 0 8 S 0 96.6 559
05:49:47 5 994 0 5 S 0 96.6 548
05:52:45 5 995 0 3 S 0 96.6 560
05:55:46 5 995 0 3 W 0 96.6 557
05:58:46 5 994 0 6 W 0 96.6 563
06:01:45 5 995 0 1 S 0 96.6 559
06:04:51 5 994 0 2 SO 0 96.6 560
06:07:48 5 995 0 3 W 0 96.6 562
06:10:47 5 995 0 3 SO 0 96.6 571
06:13:48 5 995 0 5 S 0 96.6 569
06:16:47 5 995 0 3 SW 0 96.6 568
06:19:46 5 995 0 6 S 0 96.6 561
06:22:49 5 995 0 5 SW 0 96.6 553
06:25:45 5 995 0 4 SO 0 96.6 561
06:28:46 5 995 0 4 SO 0 96.6 565
06:31:48 5 995 0 3 SO 0 96.6 568
06:34:46 5 995 0 3 SO 0 96.6 570
06:37:46 5 994 0 3 S 0 96.6 566
06:40:45 5 995 0 3 S 0 96.6 570
06:43:48 5 994 0 3 O 0 96.6 572
06:46:49 5 995 0 5 W 0 96.6 568
06:49:46 5 994 0 2 S 0 96.6 577
06:52:45 5 994 0 2 S 0 96.6 580
06:55:47 5 995 0 7 W 0 96.6 576
06:58:46 5 994 0 5 SW 0 96.6 579
07:01:49 5 994 0 2 SW 0 96.6 585
07:04:45 5 994 0 7 S 0 96.6 580
07:07:47 5 994 0 3 S 0 96.6 583
07:10:46 5 994 0 7 S 0 96.6 572
07:13:45 5 994 0 5 S 0 96.6 574
07:16:45 5 994 0 9 S 0 96.6 574
07:19:45 5 994 0 1 SO 0 96.6 579
07:22:44 5 994 0 8 N 0 96.6 597
07:25:47 5 994 0 4 SW 0 96.6 606
07:28:47 5 994 0 8 SW 0 96.6 609
07:31:46 5 994 0 4 SO 0 96.6 612
07:34:47 5 995 0 4 SO 0 96.6 621
07:37:44 5 995 3 4 S 0 96.6 625
07:40:45 5 994 4 6 S 0 96.6 627
07:43:46 5 994 6 9 S 0 96.6 630
07:46:46 5 994 9 8 SW 0 96.6 633
07:49:47 5 994 11 10 SO 0 96.6 647
07:52:48 5 994 12 9 S 0 96.6 642
07:55:47 5 995 16 7 SO 0 96.6 639
07:58:48 5 995 20 18 SO 0 96.6 642
08:01:48 5 994 24 8 S 0 96.6 647
08:04:46 5 995 29 2 S 0 96.6 637
08:07:50 5 994 33 6 SO 0 96.6 641
08:10:48 5 995 36 7 S 0.2575 96.6 632
08:13:47 5 994 42 5 S 0 96.6 632
08:16:48 6 993 44 8 SW 0 96.6 635
08:19:48 6 994 52 3 S 0 96.6 643
08:22:45 6 994 60 2 S 0 96.6 644
08:25:46 6 994 69 7 S 0 96.6 657
08:28:49 6 994 86 5 SW 0 96.6 650
08:31:46 6 994 97 3 SO 0 96.6 651
08:34:48 6 994 107 9 S 0 96.6 651
08:37:49 6 994 121 7 SO 0 96.6 655
08:40:48 6 994 127 8 W 0 96.6 651
08:43:49 6 994 140 4 NW 0 96.6 644
08:46:49 6 994 156 10 SO 0 96.6 648
08:49:48 6 992 158 16 SO 0 96.6 647
08:52:46 6 994 160 6 SW 0 96.6 651
08:55:46 6 994 159 4 SW 0 96.6 656
08:58:47 6 994 163 8 W 0 96.6 657
09:01:48 6 993 168 3 SO 0 96.6 648
09:04:48 6 994 177 3 W 0 96.6 644
09:07:47 6 994 179 3 S 0 96.6 641
09:10:47 6 994 170 7 SW 0 96.6 647
09:13:49 6 994 159 6 SW 0 96.6 653
09:16:48 6 994 148 4 SO 0 96.6 656
09:19:49 6 994 166 8 SO 0 96.6 665
09:22:47 6 994 179 7 S 0 96.6 668
09:25:46 6 994 170 6 S 0 96.6 679
09:28:48 6 994 185 4 SW 0 96.6 677
09:31:48 6 994 187 8 N 0 96.6 677
09:34:48 6 994 189 7 SW 0 96.6 673
09:37:48 6 993 184 4 SO 0 96.6 664
09:40:49 6 993 185 5 SO 0 96.6 669
09:43:48 6 994 189 6 S 0 96.6 667
09:46:49 6 994 194 6 SO 0 96.6 668
09:49:48 6 994 194 7 S 0 96.6 662
09:52:48 6 993 190 9 S 0 96.6 662
09:55:46 6 993 194 5 O 0 96.6 659
09:58:49 6 993 194 5 W 0 96.6 653
10:01:49 6 993 193 6 SW 0 96.6 654
10:04:47 6 993 199 7 W 0 96.6 659
10:07:49 6 993 198 8 W 0 96.6 659
10:10:48 6 993 201 5 SO 0 96.6 665
10:13:46 7 993 201 8 S 0 96.6 676
10:16:49 6 993 198 6 SW 0 96.6 674
10:19:47 7 993 192 4 S 0 96.5 677
10:22:46 7 993 195 4 S 0 96.6 677
10:25:47 7 994 188 5 O 0 96.5 668
10:28:49 7 992 186 7 SW 0 96.2 662
10:31:48 7 993 196 5 S 0 96.3 662
10:34:47 7 993 201 6 SO 0 96.4 668
10:37:46 7 993 207 10 S 0 96.3 665
10:40:48 7 992 202 12 S 0 95.6 659
10:43:49 7 994 204 7 SO 0 95.2 662
10:46:50 7 993 205 3 SW 0 94.7 670
10:49:48 7 993 209 9 SW 0 94.3 677
10:52:50 7 993 210 6 SW 0 94.4 679
10:55:46 7 993 211 5 SO 0 93.7 680
10:58:47 7 993 212 13 SO 0 93.5 674
11:01:49 7 992 212 7 SW 0 93.9 674
11:04:46 7 992 212 6 S 0 93.3 674
11:07:48 7 992 208 7 S 0 93 674
11:10:47 7 992 200 6 SO 0 92.6 671
11:13:50 7 992 207 10 SW 0 92.3 665
11:16:44 7 992 212 6 S 0 91.4 671
11:19:48 7 992 216 4 NO 0 92.2 679
11:22:46 7 992 214 6 N 0 92.4 677
11:25:47 8 993 209 3 S 0 92.3 671
11:28:46 8 992 207 9 W 0 91.4 674
11:31:47 8 992 200 8 SW 0 90.9 670
11:34:49 7 992 204 20 NO 0 91.5 650
11:37:47 7 992 201 15 W 0 91.4 632
11:40:47 7 992 201 7 SW 0 90.5 635
11:43:46 7 991 200 6 SO 0 91.3 648
11:46:45 7 992 198 11 S 0 91.4 657
11:49:47 7 992 202 8 S 0 91.4 658
11:52:47 7 992 208 5 S 0 91.2 651
11:55:45 7 992 210 3 SO 0 91.1 647
11:58:45 7 992 211 3 SO 0 91.5 644
12:01:46 8 992 210 5 S 0 91.3 656
12:04:46 8 991 214 9 S 0 90.9 651
12:07:48 8 992 217 5 S 0 90.5 651
12:10:50 8 991 219 10 NW 0 90.4 653
12:13:48 8 992 214 7 N 0 90.3 659
12:16:47 8 992 219 16 S 0 89.4 661
12:19:50 8 991 220 8 SW 0 89.1 665
12:22:46 8 991 220 9 O 0 88.3 663
12:25:45 8 991 217 8 N 0 88.1 664
12:28:46 8 991 214 5 S 0 88.5 661
12:31:49 8 991 214 14 S 0 87.8 656
12:34:47 8 991 214 11 S 0 86.9 656
12:37:48 8 991 219 8 SW 0 87.7 653
12:40:47 8 991 219 8 W 0 88.2 641
12:43:47 8 991 215 10 O 0 87.4 633
12:46:49 8 991 212 10 W 0 86.2 629
12:49:46 8 991 221 4 S 0 86.5 627
12:52:47 8 991 226 10 S 0 86.7 633
12:55:47 8 991 226 14 W 0 87 644
12:58:48 9 991 222 7 W 0 85.6 648
13:01:48 9 991 218 5 SW 0 85.2 651
13:04:49 8 991 223 5 SW 0 85.1 642
13:07:48 8 991 221 9 S 0 85 643
13:10:47 8 991 219 6 S 0 84.2 642
13:13:47 9 991 220 7 SW 0 84.2 641
13:16:48 9 991 221 12 S 0 84.2 638
13:19:47 9 991 219 7 S 0 83.5 679
13:22:44 9 991 201 5 N 0 83.6 677
13:25:50 8 991 162 8 SW 0 83.8 406
13:28:50 8 991 205 12 SO 0 83.2 408
13:31:47 8 991 202 15 S 0 82.4 404
13:34:50 8 991 198 6 S 0 83.2 404
13:37:46 8 991 205 4 NW 0 83.6 407
13:40:50 8 991 204 15 SW 0 83.4 405
13:43:47 8 991 206 4 NO 0 83 407
13:46:48 8 991 217 5 SW 0 83.4 407
13:49:49 8 991 221 13 SO 0 83.9 404
13:52:48 8 991 198 17 SW 0 83.9 404
13:55:47 8 991 221 7 SW 0 83.5 407
13:58:46 8 991 204 7 S 0 84 404
14:01:47 8 991 212 13 S 0 84.9 407
14:04:46 8 991 209 5 S 0 84.3 401
14:07:48 8 990 220 6 SW 0 85.8 406
14:10:45 8 991 219 5 S 0 86.4 404
14:13:46 8 990 226 6 S 0 87.6 407
14:16:50 8 990 225 8 NW 0 86.4 407
14:19:47 8 989 228 7 SW 0 85.7 407
14:22:49 8 990 225 9 SO 0 86 404
14:25:47 8 990 230 3 W 0 85.3 407
14:28:49 8 990 226 7 S 0 85.7 407
14:31:49 8 990 221 12 SW 0 84.5 406
14:34:46 8 989 217 3 S 0 84.3 408
14:37:48 8 990 218 11 S 0 83.9 405
14:40:47 8 989 215 16 SO 0 84.4 406
14:43:47 8 990 216 15 O 0 84.4 404
14:46:47 8 990 219 6 S 0 83.2 406
14:49:48 8 989 217 8 SO 0 83.7 413
14:52:47 8 990 205 5 S 0 83.6 413
14:55:46 8 989 204 6 S 0 84.5 421
14:58:50 8 990 213 8 SW 0 84.5 425
15:01:47 8 989 214 8 S 0 84.9 431
15:04:50 8 989 212 4 NW 0 84.3 433
15:07:47 8 989 208 7 S 0 84.4 439
15:10:48 8 989 204 10 SW 0 84.5 441
15:13:47 8 990 200 3 SW 0 83.5 439
15:16:49 8 989 199 14 S 0 84 445
15:19:48 8 988 202 5 SW 0 84 443
15:22:49 8 989 204 9 NW 0 83.7 442
15:25:47 8 990 203 9 SW 0 84.2 453
15:28:49 8 988 204 14 S 0 83.8 463
15:31:50 8 988 195 12 SW 0 83.6 462
15:34:49 8 989 196 15 NW 0 83.5 463
15:37:48 8 989 187 7 SO 0 83.8 469
15:40:49 8 988 186 13 SW 0 83.9 474
15:43:44 8 988 177 8 S 0 83.9 480
15:46:47 8 988 157 7 S 0 84.2 485
15:49:47 8 988 158 5 SO 0 84.7 492
15:52:50 8 988 158 19 W 0 84.8 492
15:55:48 8 988 154 16 O 0 84.8 495
15:58:48 8 988 173 6 S 0 85 495
16:01:46 8 989 174 4 S 0 85.3 492
16:04:48 8 988 153 9 SO 0 86.4 495
16:07:48 8 989 135 3 S 0 86.9 498
16:10:49 8 988 117 8 S 0 87.1 502
16:13:47 7 988 107 13 N 0 87 509
16:16:49 7 989 110 9 W 0 87.2 504
16:19:48 7 989 103 6 SW 0 87.3 501
16:22:50 7 988 139 4 SW 0 87.1 495
16:25:48 7 988 152 8 SO 0 87.3 495
16:28:48 7 988 153 4 SW 0 88.4 495
16:31:46 7 988 139 5 S 0 89.1 501
16:34:49 7 988 118 7 SW 0 90 501
16:37:50 7 988 115 7 SO 0 89.3 503
16:40:48 7 988 100 11 SW 0 89.3 509
16:43:46 7 988 86 7 S 0 88.4 514
16:46:48 7 988 82 5 W 0 88.4 518
16:49:48 7 987 67 9 SO 0 88.1 512
16:52:47 7 988 59 5 S 0 87.7 506
16:55:48 7 987 52 3 S 0 87.6 506
16:58:45 7 987 45 7 S 0 87.8 509
17:01:46 7 987 61 7 S 0 87.7 509
17:04:47 7 987 52 5 SO 0 87.8 515
17:07:48 7 987 64 9 SW 0 88.8 520
17:10:46 7 987 77 6 SW 0 89.5 526
17:13:49 7 987 60 8 W 0 90 533
17:16:46 7 987 39 8 S 0 90.3 533
17:19:47 7 987 32 4 S 0 90.6 533
17:22:48 7 987 34 8 W 0 90.6 532
17:25:47 7 987 21 9 0 90.3 538
17:28:45 7 987 17 8 W 0 90 535
17:31:49 7 987 12 10 SW 0 90 536
17:34:46 7 987 9 12 W 0 89.8 530
17:37:48 7 987 4 11 S 0 89.2 542
17:40:45 7 987 4 3 S 0 89.1 550
17:43:47 7 988 0 12 SO 0 89.2 562
17:46:46 7 987 0 4 SW 0 89.2 570
17:49:45 7 987 0 9 W 0 89.3 566
17:52:45 7 987 0 11 SW 0 89.4 568
17:55:45 7 987 0 6 S 0 89.7 566
17:58:45 7 987 0 10 W 0 89.5 563
18:01:47 7 987 0 15 NO 0 89.4 571
18:04:47 7 987 0 11 SW 0 89.4 578
18:07:47 7 987 0 2 N 0 89.5 572
18:10:48 7 987 0 8 SW 0 89.5 571
18:13:47 7 987 0 11 SO 0 89.4 573
18:16:46 7 987 0 3 SW 0 89.3 564
18:19:47 7 987 0 10 S 0 88.9 559
18:22:45 7 987 0 6 O 0 88.6 554
18:25:47 7 987 0 3 S 0 88.8 558
18:28:50 7 987 0 6 SW 0 88.7 565
18:31:46 7 987 0 6 S 0 88.6 563
18:34:48 7 987 0 7 NW 0 88.6 562
18:37:48 7 987 0 3 SW 0 88.6 562
18:40:45 7 987 0 7 SO 0 89 563
18:43:49 7 987 0 5 S 0 89.6 565
18:46:46 7 987 0 8 SW 0 89.9 573
18:49:45 7 987 0 8 W 0 90.1 574
18:52:47 7 987 0 12 S 0 90.6 586
18:55:46 7 987 0 5 S 0 90.6 559
18:58:45 7 987 0 6 S 0 90 559
19:01:47 7 987 0 9 SO 0 89.9 550
19:04:46 7 987 0 3 S 0 89.5 556
19:07:46 7 986 0 13 S 0 89.4 551
19:10:47 7 986 0 10 S 0 89.1 553
19:13:47 7 987 0 6 S 0 88.8 547
19:16:47 7 986 0 10 S 0 89.3 542
19:19:49 7 987 0 10 W 0 89.5 547
19:22:45 7 987 0 6 S 0 89.5 545
19:25:49 7 986 0 16 SW 0 89.6 538
19:28:46 7 986 0 4 S 0 89.5 530
19:31:48 7 987 0 7 W 0 90.2 530
19:34:47 6 986 0 8 S 0 90.9 533
19:37:45 6 986 0 6 SW 0 91.7 544
19:40:48 6 986 0 6 SO 0 92.1 530
19:43:46 6 987 0 5 NW 0 93 535
19:46:48 6 986 0 7 NW 0 94 519
19:49:46 6 987 0 12 S 0.2575 95.2 512
19:52:46 6 986 0 3 SW 0 95.9 503
19:55:47 6 986 0 7 SW 0 96.6 407
19:58:46 6 987 0 7 W 0 96.6 407
20:01:45 6 987 0 8 O 0 96.6 407
20:04:48 6 987 0 5 SW 0 96.6 404
20:07:45 6 987 0 7 SW 0 96.6 404
20:10:48 6 986 0 6 S 0 96.6 407
20:13:46 6 986 0 9 SW 0 96.6 407
20:16:47 6 986 0 13 SW 0 96.6 407
20:19:47 6 986 0 12 S 0 96.6 405
20:22:47 6 986 0 6 S 0 96.6 404
20:25:48 6 986 0 5 SW 0 96.6 406
20:28:47 6 986 0 10 SW 0 96.6 405
20:31:47 6 986 0 8 S 0.2575 96.6 406
20:34:45 6 987 0 5 N 0 96.6 407
20:37:45 6 987 0 16 O 0 96.6 404
20:40:47 6 987 0 18 SW 0.2575 96.6 407
20:43:47 6 988 0 21 SW 0 96.6 406
20:46:47 5 987 0 18 W 0 96.5 404
20:49:48 4 988 0 31 SW 0 96.2 406
20:52:48 4 988 0 13 NW 0 96.6 407
20:55:46 3 988 0 23 NW 0 96.6 407
20:58:46 3 988 0 22 SW 0 96.6 404
21:01:49 3 988 0 12 W 0 96.6 404
21:04:47 3 988 0 14 SW 0 96.6 405
21:07:48 3 989 0 8 SW 0 96.6 404
21:10:47 3 989 0 9 N 0 96.6 407
21:13:47 3 990 0 25 SO 0 96.6 409
21:16:47 3 989 0 10 W 0 96.6 404
21:19:47 3 990 0 1 SO 0 96.6 404
21:22:47 3 990 0 6 SW 0 96.6 407
21:25:51 3 990 0 10 SW 0 96.6 406
21:28:49 3 990 0 19 NW 0 96.6 407
21:31:47 3 990 0 6 NW 0 96.6 407
21:34:45 3 991 0 5 S 0 96.6 406
21:37:47 3 991 0 13 SW 0 96.6 492
21:40:48 2 991 0 23 W 0 96.6 492
21:43:46 2 991 0 4 W 0 96.6 498
21:46:47 2 991 0 7 W 0 96.6 502
21:49:45 2 991 0 8 SW 0 96.6 509
21:52:45 2 991 0 10 O 0 96.6 512
21:55:47 2 991 0 8 SW 0.2575 96.6 521
21:58:46 2 991 0 9 W 0 96.6 536
22:01:47 2 991 0 8 W 0 96.6 536
22:04:47 2 991 0 13 SW 0 96.6 536
22:07:46 2 991 0 8 W 0 96.6 547
22:10:48 2 991 0 9 SW 0 96.6 548
22:13:50 2 991 0 9 SW 0 96.6 540
22:16:46 2 991 0 12 S 0 96.6 524
22:19:49 2 991 0 21 NW 0 96.6 519
22:22:45 2 991 0 10 W 0 96.6 518
22:25:52 2 991 0 10 NW 0 96.6 528
22:28:46 2 991 0 5 SO 0 96.6 529
22:31:47 2 991 0 6 W 0 96.6 542
22:34:46 2 991 0 3 SW 0 96.6 542
22:37:49 2 991 0 9 S 0 96.6 567
22:40:48 2 991 0 12 NW 0 96.6 580
22:43:48 2 991 0 9 SW 0 96.6 600
22:46:48 2 991 0 5 SW 0 96.6 606
22:49:50 2 991 0 10 SW 0 96.6 624
22:52:45 2 991 0 4 O 0 96.6 644
22:55:49 2 992 0 10 SW 0 96.6 661
22:58:45 2 991 0 12 W 0 96.6 671
23:01:48 2 991 0 22 NW 0 96.6 682
23:04:46 2 992 0 16 S 0 96.6 682
23:07:48 3 992 0 6 SW 0 96.6 695
23:10:47 3 991 0 7 O 0 96.6 697
23:13:48 3 992 0 6 NW 0 96.6 697
23:16:47 3 993 0 5 W 0 96.6 708
23:19:45 3 992 0 4 NW 0 96.6 711
23:22:48 3 993 0 9 SW 0 96.6 720
23:25:50 3 992 0 10 SW 0 96.6 720
23:28:49 3 992 0 13 SW 0 96.6 728
23:31:47 3 992 0 6 W 0 96.6 729
23:34:46 3 993 0 4 W 0 96.6 729
23:37:45 3 993 0 5 S 0 96.6 728
23:40:47 3 992 0 9 W 0 96.6 733
23:43:48 3 993 0 10 SW 0 96.6 730
23:46:49 3 993 0 16 SW 0 96.6 746
23:49:48 3 994 0 12 SW 0 96.6 759
23:52:47 3 993 0 9 S 0 96.6 758
23:55:46 3 993 0 14 NW 0 96.6 741
23:58:48 3 993 0 19 SW 0 96.6 745

Letzte Änderung : 22-Jul-2022
Copyright Jens Köhler, Wolfsburg, Obere Dorfstraße 10d